Search your local weather  

 

Hazardous Weather Conditions

No active alerts for HOUSTON, TEXAS

Current Conditions: HOUSTON, TEXAS

Fair


54.0 F

Last Updated on Feb 20 2019, 6:53 pm CST
Humidity: 64%
Wind Speed: N 4.6 mph
Barometer 29.95 in
Dewpoint: 42.1 F
Visibility: 10.00 mi
Precip: --
Heat Index: NA
Wind Chill: 53 F
Current conditions at:

Houston, Hooks Memorial Airport, TX (KDWH)

Lat: 30.06 Lon: -95.556

Local Radar Image active severe weather and emergency alerts image image weather storm and storm spotter reports image weather observation monitoring service image
Local
Radar
Active
Alerts
Storm Reports Weather
Monitoring

Weather Alert Notification Services


ialert severe weather and emergency alerts by text message and email ialert daily weather forecast by email and text message service ialert real-time weather-observation monitoring and alert notification service ialert storm report monitoring alert notification

Observation History for HOUSTON, TEXAS


Time Wind
(mph)
Vis
(mi)
Weather Precip (in) Temperature (F) Relative
Humidity
Wind
Chill
(°F)
Heat
Index
(°F)
Pressure
Air Dwpt altimeter
(in)
sea level
(mb)
6:53 pm CST N 4.6 10.00 Fair -- 54.0 42.1 64% 53 NA 29.95 1014.0
5:53 pm CST NE 5.8 10.00 Fair -- 60.0 42.1 52% 60 NA 29.94 1013.7
4:53 pm CST NE 8.1 10.00 Fair -- 62.0 43.0 50% 61 NA 29.93 1013.3
3:53 pm CST 4.6 10.00 Fair -- 63.0 42.1 47% 64 NA 29.94 1013.6
2:53 pm CST NE 6.9 10.00 Fair -- 63.0 42.1 47% 63 NA 29.94 1013.5
1:53 pm CST N 11.5 10.00 Fair -- 61.0 39.9 46% 59 NA 29.95 1014.1
12:53 pm CST NW 9.2 10.00 Fair -- 58.0 43.0 58% 56 NA 29.99 1015.3
11:53 am CST NW 9.2 10.00 Fair -- 54.0 44.1 69% 51 NA 30.02 1016.3
10:53 am CST 5.8 10.00 A Few Clouds -- 52.0 44.1 75% 50 NA 30.04 1017.1
9:53 am CST NW 9.2 10.00 Overcast -- 47.0 43.0 86% 43 NA 30.03 1017.0
8:53 am CST NW 9.2 10.00 Overcast -- 45.0 42.1 90% 40 NA 30.01 1016.2
7:53 am CST N 8.1 10.00 Overcast -- 45.0 43.0 93% 41 NA 29.99 1015.4
6:53 am CST NW 5.8 10.00 Overcast -- 45.0 43.0 93% 42 NA 29.95 1014.2
5:53 am CST NW 5.8 10.00 Overcast -- 44.0 43.0 96% 41 NA 29.93 1013.6
4:53 am CST NW 5.8 10.00 Overcast -- 44.0 43.0 96% 41 NA 29.92 1013.0
3:53 am CST NW 8.1 7.00 Overcast 00.01 44.0 44.1 100% 39 NA 29.92 1013.0
2:53 am CST NW 6.9 5.00 Light Rain Fog/Mist Trace 45.0 44.1 97% 41 NA 29.91 1012.8
1:53 am CST NW 9.2 G 18.4 5.00 Fog/Mist -- 45.0 44.1 97% 40 NA 29.89 1012.1
12:53 am CST NW 8.1 3.00 Fog/Mist -- 46.0 45.0 96% 42 NA 29.88 1011.9
11:53 pm CST NW 9.2 5.00 Fog/Mist Trace 47.0 46.0 97% 43 NA 29.88 1011.7
10:53 pm CST NW 5.8 8.00 Overcast -- 47.0 46.9 100% 44 NA 29.85 1010.8
9:53 pm CST N 6.9 8.00 Overcast Trace 47.0 46.9 100% 44 NA 29.83 1009.9
8:53 pm CST N 8.1 10.00 Overcast -- 47.0 46.0 97% 43 NA 29.84 1010.4
7:53 pm CST N 9.2 3.00 Fog/Mist Trace 47.0 46.9 100% 43 NA 29.83 1010.0

Regional Weather Observation

John Dunn Helistop, TX (KMCJ)

A Few Clouds
61.0 F

Houston, Houston Hobby Airport, TX (KHOU)

Partly Cloudy
61.0 F

Houston Southwest Airport, TX (KAXH)

Partly Cloudy
58.0 F

Conroe, Montgomery County Airport, TX (KCXO)

Fair
47.0 F

Houston, Pearland Regional Airport, TX (KLVJ)

Mostly Cloudy
62.0 F

Cleveland, TX (K6R3)

Fair
48.0 F

Advertise Here


Advertise Here